Home   Weather   Abilene   Past weeks

Flag for USA Past Weather in Abilene, Texas, USA — Yesterday and Last 2 Weeks

Now
59 °F

Scattered clouds.


Feels Like: 56 °F
Forecast: 44 / 57 °F
Wind: 17 mph from Southeast

Location: Abilene Regional Airport

Current Time: Dec 2, 2016 at 2:05:51 pm

Latest Report: Dec 2, 2016 at 12:52 pm


Visibility: 10 mi

Pressure: 30.00 "Hg (28.19 "Hg at 524m altitude)

Humidity: 78%

Dew Point: 52 °F

Location of AbileneLocation

Past Weather in Abilene — Graph

°F

Abilene Temperature Yesterday

Maximum temperature yesterday: 65 °F (at 3:52 pm)
Minimum temperature yesterday: 37 °F (at 1:52 am)
Average temperature yesterday: 51 °F

High & Low Weather Summary for the Past Weeks

 TemperatureHumidityPressure
High79 °F (Nov 17, 1:52 pm)96% (Nov 28, 4:52 am)30.68 "Hg (Nov 28, 4:52 am)
Low31 °F (Nov 19, 5:52 am)20% (Nov 19, 3:52 pm)29.46 "Hg (Nov 28, 1:52 pm)
Average55 °F56%30.04 "Hg
* Reported Nov 17 12:52 pm — Dec 2 12:52 pm, Abilene, Weather by CustomWeather, © 2016

Note: Actual official high and low records may vary slightly from our data, if they occured in-between our weather recording intervals... More about our weather records

Advertising

Abilene Weather History for the Previous 24 Hours

Scroll right to see more
 ConditionsComfort  
Time TempWeatherWind HumidityBarometerVisibility
12:52 pm
Fri, Dec 2
59 °FScattered clouds.17 mph78%30.00 "Hg10 mi
11:52 am58 °FOvercast.15 mph78%30.06 "Hg10 mi
10:59 am55 °FMostly cloudy.13 mph83%30.10 "Hg10 mi
9:52 am54 °FMostly cloudy.17 mph86%30.08 "Hg9 mi
8:52 am52 °FMostly cloudy.16 mph89%30.08 "Hg9 mi
7:52 am50 °FOvercast.12 mph89%30.06 "Hg8 mi
6:52 am49 °FOvercast.10 mph86%30.05 "Hg10 mi
5:52 am50 °FLow clouds.12 mph80%30.01 "Hg10 mi
4:52 am48 °FPassing clouds.8 mph71%29.99 "Hg10 mi
3:52 am47 °FClear.10 mph74%29.98 "Hg10 mi
2:52 am46 °FClear.8 mph73%29.98 "Hg10 mi
1:52 am46 °FClear.5 mph71%29.97 "Hg10 mi
12:52 am48 °FClear.8 mph71%29.98 "Hg10 mi
11:52 pm
Thu, Dec 1
47 °FClear.5 mph69%29.98 "Hg10 mi
10:52 pm47 °FClear.10 mph71%29.98 "Hg10 mi
9:52 pm47 °FClear.7 mph69%29.98 "Hg10 mi
8:52 pm49 °FClear.10 mph64%29.97 "Hg10 mi
7:52 pm50 °FClear.9 mph61%29.96 "Hg10 mi
6:52 pm53 °FClear.6 mph55%29.94 "Hg10 mi
5:52 pm59 °FClear.5 mph44%29.90 "Hg10 mi
4:52 pm64 °FSunny.8 mph34%29.90 "Hg10 mi
3:52 pm65 °FSunny.13 mph33%29.90 "Hg10 mi
2:52 pm64 °FSunny.14 mph34%29.93 "Hg10 mi
Weather by CustomWeather, © 2016

See weather overviewHow to use our weather pages